Location: Alafon
(8.4500°N, 4.2333°E)
Time: 04:23:07
(UTC+00:00)

Vanguard 2 Rocket - All Passes

Search period start: 26 July 2021 00:00
Search period end: 05 August 2021 00:00
Orbit: 554 x 3325 km, 32.9° (Epoch: 25 July)

Date Brightness Start Highest point End Pass type
(mag) Time Alt. Az. Time Alt. Az. Time Alt. Az.
26 Jul - 02:52:40 10° S 02:55:14 12° SSE 02:57:28 10° SE visible
26 Jul - 05:04:13 10° SW 05:09:50 61° SSE 05:13:51 10° ENE visible
26 Jul - 07:20:52 10° NW 07:22:43 13° NNW 07:24:35 10° N daylight
26 Jul - 11:50:54 10° N 11:54:55 14° NNE 12:00:00 10° ENE daylight
26 Jul - 14:01:05 10° NW 14:10:28 50° NE 14:26:21 10° ESE daylight
26 Jul - 16:14:09 10° WNW 16:27:08 69° SW 16:46:57 10° SE daylight
26 Jul - 18:32:23 10° W 18:46:33 30° SSW 19:02:49 10° SSE visible
27 Jul - 04:03:58 10° SW 04:10:12 34° SSE 04:14:25 10° E visible
27 Jul - 06:19:20 10° W 06:23:10 25° NNW 06:26:29 10° NNE daylight
27 Jul - 13:02:20 10° NNW 13:09:49 33° NE 13:21:56 10° E daylight
27 Jul - 15:14:13 10° WNW 15:25:26 88° SW 15:44:20 10° SE daylight
27 Jul - 17:30:00 10° W 17:43:47 39° SSW 18:01:46 10° SSE daylight
27 Jul - 19:55:48 10° SW 20:05:17 15° SSW 20:14:50 10° S visible
28 Jul - 03:03:41 10° SSW 03:10:07 23° SSE 03:14:34 10° ESE visible
28 Jul - 05:18:18 10° WSW 05:23:53 56° NW 05:27:53 10° NE daylight
28 Jul - 12:04:04 10° NNW 12:09:25 20° NNE 12:17:03 10° ENE daylight
28 Jul - 14:14:50 10° NW 14:24:19 70° NE 14:41:07 10° ESE daylight
28 Jul - 16:28:48 10° WNW 16:41:24 50° SSW 17:00:05 10° SE daylight
28 Jul - 18:49:45 10° WSW 19:01:45 21° SSW 19:15:01 10° SSE visible
29 Jul - 02:03:20 10° SSW 02:09:32 18° SSE 02:14:06 10° ESE visible
29 Jul - 04:17:21 10° SW 04:24:30 74° SSE 04:28:59 10° ENE visible
29 Jul - 06:35:32 10° NW 06:37:18 12° NNW 06:38:59 10° N daylight
29 Jul - 11:07:19 10° NNE 11:09:04 11° NNE 11:11:02 10° NE daylight
29 Jul - 13:15:53 10° NW 13:23:45 48° NE 13:37:25 10° ESE daylight
29 Jul - 15:28:29 10° WNW 15:39:32 64° SSW 15:57:52 10° SE daylight
29 Jul - 17:46:08 10° W 17:58:39 27° SSW 18:14:13 10° SSE daylight
29 Jul - 20:19:22 10° SSW 20:21:46 10° SSW 20:24:09 10° S visible
30 Jul - 01:03:00 10° S 01:08:25 14° SSE 01:12:45 10° SE night (unlit)
30 Jul - 03:16:23 10° SW 03:24:43 44° SSE 03:29:45 10° ENE visible
30 Jul - 05:33:13 10° W 05:37:50 26° NW 05:41:22 10° NNE daylight
30 Jul - 12:17:22 10° NNW 12:23:33 30° NE 12:33:21 10° E daylight
30 Jul - 14:28:48 10° WNW 14:38:15 84° SW 14:55:12 10° SE daylight
30 Jul - 16:44:08 10° W 16:56:02 35° SSW 17:12:47 10° SSE daylight
30 Jul - 19:09:08 10° SW 19:17:41 14° SSW 19:26:41 10° S visible
31 Jul - 00:02:56 10° S 00:06:39 11° SSE 00:09:54 10° SSE night (unlit)
31 Jul - 02:15:21 10° SSW 02:24:26 31° SSE 02:30:07 10° E visible
31 Jul - 04:31:31 10° WSW 04:38:30 54° NW 04:42:57 10° NE visible
31 Jul - 11:19:30 10° N 11:23:31 17° NNE 11:28:52 10° ENE daylight
31 Jul - 13:29:37 10° NW 13:37:34 71° NE 13:52:09 10° ESE daylight
31 Jul - 15:43:14 10° W 15:53:57 45° SSW 16:10:55 10° SE daylight
31 Jul - 18:03:41 10° WSW 18:14:06 19° SSW 18:26:16 10° SSE visible
01 Aug - 01:14:14 10° SSW 01:23:36 24° SSE 01:29:54 10° ESE visible
01 Aug - 03:29:56 10° SW 03:38:58 84° SSE 03:44:10 10° ENE visible
01 Aug - 05:49:23 10° WNW 05:51:51 13° NNW 05:54:01 10° N daylight
01 Aug - 12:30:52 10° NW 12:37:25 46° NE 12:48:49 10° ESE daylight
01 Aug - 14:43:08 10° WNW 14:52:27 59° SSW 15:08:40 10° SE daylight
01 Aug - 17:00:26 10° WSW 17:11:07 24° SSW 17:25:06 10° SSE daylight
02 Aug - 00:13:02 10° SSW 00:22:12 19° SSE 00:28:53 10° ESE night (unlit)
02 Aug - 02:28:18 10° SW 02:38:59 54° SSE 02:45:02 10° ENE visible
02 Aug - 04:46:31 10° W 04:52:22 28° NW 04:56:26 10° NNE visible
02 Aug - 11:32:34 10° NNW 11:37:35 26° NE 11:45:14 10° E daylight
02 Aug - 13:43:38 10° WNW 13:51:33 79° SSW 14:06:10 10° SE daylight
02 Aug - 15:58:42 10° W 16:08:44 31° SSW 16:23:29 10° SSE daylight
02 Aug - 18:23:24 10° SW 18:30:14 13° SSW 18:37:38 10° S visible
02 Aug - 23:11:51 10° SSW 23:20:07 15° SSE 23:26:43 10° SE night (unlit)
03 Aug - 01:26:38 10° SW 01:38:27 39° SSE 01:45:27 10° E visible
03 Aug - 03:44:11 10° WSW 03:52:55 54° NW 03:58:05 10° NE visible
03 Aug - 10:35:07 10° N 10:37:49 13° NNE 10:41:04 10° ENE daylight
03 Aug - 12:44:36 10° NW 12:51:16 72° NE 13:03:29 10° ESE daylight
03 Aug - 14:58:01 10° W 15:06:59 39° SSW 15:21:37 10° SE daylight
03 Aug - 17:18:18 10° SW 17:26:44 16° SSW 17:36:52 10° SSE daylight
03 Aug - 22:10:54 10° S 22:17:15 12° SSE 22:22:52 10° SE visible
04 Aug - 00:24:57 10° SSW 00:37:19 30° SSE 00:45:16 10° E night (unlit)
04 Aug - 02:41:56 10° SW 02:53:10 89° NW 02:59:19 10° NE visible
04 Aug - 05:02:34 10° WNW 05:06:20 16° NW 05:09:21 10° N visible
04 Aug - 11:45:58 10° NW 11:51:26 43° NE 12:00:40 10° ESE daylight
04 Aug - 13:58:04 10° WNW 14:05:50 52° SSW 14:19:34 10° SE daylight
04 Aug - 16:15:17 10° WSW 16:23:58 20° SSW 16:35:32 10° SSE daylight
04 Aug - 21:11:25 10° S 21:13:35 10° S 21:15:41 10° SSE visible
04 Aug - 23:23:20 10° SSW 23:35:36 24° SSE 23:44:17 10° ESE night (unlit)
